Wind_Speed
61 60 60 62 61 59 57 55 53 50 47 45 44 42 39 38 37 35 33 33 33 33 34 32 28 26 25 24 24 24 23 24 25 22 20 19 18 19 18 17 17 16 16 16 16 16 17 17 19 19 20 20 21 21 21 20 20 20 20 20 19 19 18 17 16 15 15 14 15 15 15 16 17 17
64 63 63 64 64 63 60 58 56 53 49 48 46 43 40 40 39 37 36 35 35 35 35 33 29 28 28 26 25 25 23 24 26 24 22 21 20 20 21 21 21 20 19 18 17 17 17 17 18 19 20 20 21 21 21 21 21 20 20 20 19 18 17 17 16 16 16 16 16 17 18 19 19 20
68 67 66 67 67 67 65 61 59 56 54 52 49 45 42 42 42 42 41 39 37 35 34 32 31 31 31 29 27 27 27 27 28 27 25 25 24 24 24 24 23 23 22 21 20 19 18 18 18 18 18 19 19 20 20 20 20 20 19 19 19 18 18 17 17 17 18 18 19 19 20 21 22 22
73 71 70 70 70 70 69 66 62 59 58 56 53 49 46 44 44 45 46 44 40 37 34 33 33 33 33 31 29 29 31 30 30 30 29 28 28 27 27 25 24 25 25 24 22 20 20 19 19 18 18 18 18 18 18 19 18 19 19 19 19 19 19 19 19 19 20 20 21 22 23 24 24 24
78 75 73 72 72 72 71 70 67 63 62 61 58 54 50 47 46 47 48 47 43 38 36 36 35 32 32 33 32 31 31 31 32 33 32 31 30 31 30 27 26 26 25 24 23 22 21 20 20 20 19 18 18 18 18 19 19 19 19 19 20 20 20 20 21 21 22 23 23 24 25 26 27 27
83 80 78 76 76 75 73 72 71 68 67 66 63 58 53 50 49 48 48 48 45 40 38 38 36 32 31 33 35 35 33 32 33 34 34 33 34 35 32 28 27 27 26 26 25 23 21 20 20 21 21 21 21 21 20 20 20 20 20 21 21 21 22 22 23 24 25 25 26 27 28 28 29 29
85 85 84 82 80 77 75 74 73 72 72 70 67 62 58 55 53 52 51 50 48 45 42 41 39 35 34 35 37 39 38 36 36 35 35 35 36 37 34 31 29 29 28 27 26 24 22 22 21 22 23 24 24 23 23 22 21 21 21 22 23 23 24 24 25 26 27 28 29 29 30 31 31 31
85 86 87 87 84 80 78 76 75 74 74 74 71 68 65 61 58 57 56 54 52 48 45 45 44 40 37 36 37 39 41 42 41 39 38 37 37 38 38 35 31 30 30 29 27 25 24 23 24 24 24 25 26 25 24 23 23 23 23 23 24 24 25 27 28 28 29 30 31 32 33 34 34 34
81 84 87 88 87 85 82 80 79 78 77 77 75 72 70 67 63 62 61 59 56 52 48 47 48 45 41 39 39 38 40 45 46 44 41 40 39 39 39 38 34 32 32 32 31 30 28 26 26 26 26 26 27 27 26 25 25 24 24 25 26 26 28 29 30 31 32 32 33 34 35 36 36 36
76 80 84 86 88 88 87 86 85 83 82 80 78 75 74 72 68 67 66 64 60 57 52 49 49 49 47 46 44 39 37 41 47 48 45 42 42 41 40 40 38 36 35 34 33 34 32 29 28 28 28 29 30 29 27 26 26 25 26 27 28 29 31 32 33 33 33 34 35 36 37 38 38 38
73 74 78 83 86 89 91 92 90 87 85 84 82 79 78 76 74 72 69 66 63 60 57 53 51 51 50 50 49 45 39 38 43 49 49 45 44 43 43 43 42 40 39 37 35 34 33 32 32 32 31 32 33 32 30 29 27 25 26 28 28 29 31 34 34 32 32 33 35 36 37 37 38 38
72 72 72 76 81 87 91 94 94 91 89 88 86 84 82 80 78 76 73 70 67 63 61 58 54 53 52 52 52 49 44 38 39 46 51 49 46 45 45 45 45 43 41 40 39 36 33 33 34 35 34 33 34 35 35 35 32 28 27 28 29 30 32 34 33 30 30 32 33 34 36 37 37 39
71 71 70 71 76 82 88 92 95 95 94 93 91 89 87 84 81 79 77 75 72 68 65 62 58 55 53 52 51 49 45 41 39 43 49 52 51 48 47 48 48 45 43 43 42 40 37 36 36 37 37 36 37 38 38 37 35 33 33 33 33 33 34 35 33 30 31 34 34 35 38 38 37 38
69 70 70 71 74 79 83 88 94 97 97 98 96 94 93 89 85 82 80 79 76 72 69 66 62 58 55 53 53 50 47 45 44 45 49 52 54 53 51 51 52 49 46 45 44 43 41 40 40 41 41 41 41 39 38 38 37 36 37 37 36 38 39 40 38 36 37 38 38 38 38 38 37 37
67 68 69 71 74 77 79 83 89 94 96 99 99 97 97 95 90 86 83 81 79 76 73 71 68 64 59 57 57 55 52 50 50 50 52 53 54 55 55 55 55 53 50 48 46 45 45 44 44 45 45 46 46 43 42 41 39 38 38 38 39 41 43 43 42 41 41 42 42 41 40 40 40 40
66 67 68 69 72 76 78 80 84 88 91 95 97 97 98 98 95 91 87 84 83 80 77 75 73 70 65 61 60 60 59 57 54 53 56 57 56 55 57 58 58 57 54 51 48 47 48 48 49 50 49 49 50 50 48 45 40 37 37 38 39 41 43 43 43 43 44 45 45 44 43 43 43 44
65 65 66 68 69 73 77 79 81 81 84 91 95 94 96 99 97 95 93 89 86 85 81 78 76 75 70 66 63 61 61 60 57 54 56 58 58 58 59 60 61 61 60 56 53 52 50 49 51 52 51 51 52 52 51 48 44 40 39 39 40 41 43 44 45 45 46 47 46 45 45 45 46 47
64 64 65 66 67 70 75 81 82 80 80 86 92 92 94 98 98 96 95 92 89 88 85 81 79 78 75 72 68 65 62 63 63 60 58 58 58 59 60 60 62 64 65 64 62 59 57 54 53 52 52 52 53 53 53 52 49 46 45 45 45 45 46 48 49 50 50 50 50 50 50 50 51 52
63 64 64 64 65 67 72 79 83 83 81 83 88 91 93 96 99 98 96 94 92 90 88 84 80 79 78 76 74 71 68 67 68 68 66 64 63 62 61 60 61 63 65 66 66 66 65 63 60 58 57 56 55 55 56 55 53 52 52 52 52 52 52 52 54 55 55 55 55 54 54 54 55 55
60 62 62 62 63 64 68 74 81 84 84 82 85 89 91 94 98 99 97 95 94 93 91 87 82 80 80 78 76 74 72 70 70 71 71 71 69 68 66 64 64 65 66 66 66 66 67 68 66 64 62 61 60 59 59 59 58 57 57 57 57 57 57 56 57 58 59 59 59 58 58 58 59 59
57 59 60 60 61 62 64 70 77 84 86 84 83 87 90 91 95 98 99 97 95 94 93 90 85 80 80 81 80 78 76 73 72 71 71 72 73 73 71 68 67 67 68 69 69 67 67 68 69 68 66 65 64 64 64 64 63 62 61 61 60 60 59 59 60 61 62 62 62 62 62 62 63 63
54 56 57 58 59 61 62 66 73 81 86 85 82 84 88 90 92 95 99 98 96 94 93 92 88 82 80 81 83 83 82 80 77 75 73 71 73 75 76 74 71 70 70 72 73 70 68 68 70 71 70 69 69 68 68 69 69 68 67 66 65 64 63 63 64 65 65 65 65 65 66 66 67 67
51 54 55 56 57 58 59 62 68 77 84 86 84 83 85 88 90 93 96 98 97 95 93 93 92 87 82 81 81 83 85 86 84 83 79 75 73 74 76 77 75 72 72 74 75 74 72 71 71 72 72 72 73 73 73 74 74 73 73 73 73 72 71 70 70 69 69 69 68 69 70 70 70 70
49 51 53 54 55 56 57 59 64 71 80 86 87 85 84 86 88 90 92 95 97 96 93 93 94 91 87 85 83 82 84 86 88 87 85 81 77 76 76 77 76 73 71 73 76 77 77 76 75 76 76 75 76 77 77 78 78 78 78 78 78 79 79 78 76 75 74 72 72 72 73 73 73 73
47 48 50 51 52 53 55 57 61 67 74 81 86 87 86 86 88 88 89 92 94 96 94 94 95 94 90 89 89 88 88 89 90 89 88 86 83 80 78 77 77 75 73 73 75 77 79 80 80 81 81 81 81 81 81 81 81 81 81 82 82 83 83 82 81 80 79 78 77 77 78 78 79 79
44 46 48 49 50 51 52 55 59 64 70 76 82 87 88 88 87 88 88 89 91 93 94 94 95 95 94 93 94 94 93 92 93 93 93 91 89 86 83 80 79 78 76 76 77 78 79 81 83 83 84 84 84 84 83 83 83 83 83 84 85 85 85 85 84 83 83 84 84 85 85 85 85 86
42 44 46 47 48 49 50 53 56 61 66 72 78 84 88 89 88 88 89 89 89 90 92 93 94 95 96 96 96 97 96 93 93 94 94 94 93 92 89 86 83 81 80 79 80 81 82 83 84 85 85 85 85 86 86 86 86 86 87 87 88 88 88 88 88 88 89 90 91 91 90 89 90 91
41 42 44 45 46 47 48 50 53 57 63 68 74 79 85 88 89 88 89 90 90 89 89 90 91 93 97 99 99 99 99 97 94 93 93 93 94 94 94 91 88 85 84 83 82 82 83 83 85 86 86 87 87 88 88 89 89 90 90 91 91 92 92 92 93 93 94 94 94 94 94 94 95 95
40 41 42 43 44 45 46 48 51 54 59 64 70 75 81 86 89 89 88 89 91 91 90 89 89 91 96 100 101 101 102 101 98 95 94 93 94 95 96 96 93 89 88 88 87 86 85 84 85 86 86 87 88 89 90 91 91 91 92 93 94 94 95 96 96 97 97 97 97 98 98 99 99 98
38 39 40 42 43 44 44 45 48 51 56 61 66 71 76 82 86 89 89 88 90 92 91 91 91 91 93 99 103 103 103 104 103 99 96 94 94 94 95 98 97 94 91 90 91 92 92 91 90 89 88 88 89 90 91 91 92 92 93 94 95 96 97 98 99 99 100 101 101 102 102 102 102 102
37 38 39 40 41 42 43 43 45 48 52 57 62 67 72 77 82 87 89 90 90 91 92 93 94 93 93 97 102 105 105 106 106 105 101 98 96 95 95 97 99 98 96 94 92 93 94 95 96 95 94 93 92 92 93 93 94 95 95 96 97 98 99 100 101 101 102 103 104 104 105 105 105 105
36 37 38 39 40 41 41 41 42 45 48 52 58 63 68 73 78 83 87 90 92 93 93 94 94 94 93 95 99 104 106 106 106 106 105 103 101 99 98 98 98 99 99 98 97 96 96 96 97 98 98 98 97 96 96 97 97 98 98 99 99 100 101 101 102 103 104 105 105 106 107 107 108 109
33 35 37 38 39 39 40 40 41 42 44 48 52 58 63 68 73 78 84 89 93 94 93 92 91 91 92 93 95 100 104 106 106 105 105 105 104 103 102 101 101 102 102 102 102 101 100 100 99 100 101 102 101 101 101 101 102 102 103 103 103 104 105 105 106 107 108 108 109 110 111 112 113 113
31 33 35 36 37 38 39 39 40 40 42 44 48 52 57 62 68 73 78 83 89 93 94 93 91 90 90 90 92 95 98 101 103 103 103 103 104 104 104 104 104 104 105 106 107 106 106 104 103 103 103 104 104 105 105 105 105 106 107 107 108 108 109 110 111 112 112 113 114 115 116 116 116 116
30 32 33 34 36 37 38 38 39 39 40 41 44 47 51 56 61 67 71 76 81 87 91 94 94 93 91 90 90 91 93 96 97 98 99 99 100 101 102 103 103 103 104 105 106 108 108 108 107 107 106 106 107 107 108 108 109 110 110 111 112 112 113 114 114 115 115 116 117 117 118 118 118 118
27 30 32 33 34 35 36 37 38 38 39 39 41 43 46 50 54 59 64 69 73 78 82 87 91 94 95 95 94 93 93 94 95 95 96 97 97 97 98 98 99 100 101 102 104 105 107 108 108 109 109 109 110 110 111 111 112 113 113 114 115 115 116 116 116 117 117 117 118 118 119 119 120 120
22 25 29 31 33 34 35 36 37 37 38 38 39 40 42 44 48 52 56 61 66 70 74 78 83 87 91 94 96 97 97 96 96 96 96 97 97 96 97 97 98 98 99 100 101 102 104 105 107 108 108 109 109 110 111 112 112 113 114 114 115 116 117 117 117 118 118 118 118 119 119 119 120 120
16 19 22 25 29 31 33 35 36 36 37 37 38 38 39 41 43 46 49 53 58 63 67 72 76 80 84 87 91 94 97 98 99 99 99 99 99 99 98 98 98 98 99 100 100 101 102 103 104 105 106 106 106 106 107 108 109 110 111 112 113 114 116 116 117 117 118 118 118 118 118 119 119 120
12 14 16 19 22 25 28 31 33 34 36 36 37 38 38 39 40 42 44 47 51 55 59 64 68 72 76 80 83 87 90 93 96 98 99 101 102 103 103 102 101 100 100 100 101 102 103 103 104 104 105 105 105 106 106 107 108 109 111 112 113 114 115 116 117 117 118 118 119 119 120 121 122 123
9 10 11 13 15 18 21 24 26 29 31 33 35 36 37 38 39 40 41 43 45 48 51 55 59 63 67 72 76 80 83 86 89 92 95 98 100 102 104 105 106 106 105 105 104 104 104 105 105 106 107 107 108 109 109 110 111 113 114 115 115 116 117 118 119 119 120 121 122 123 124 126 127 128
9 9 9 9 10 12 14 17 20 22 24 27 29 32 34 35 37 38 40 41 43 44 46 48 51 55 58 62 67 71 75 79 82 86 89 92 95 97 100 102 105 107 108 109 110 110 110 110 110 111 112 113 114 115 116 117 118 119 119 120 121 122 123 123 124 124 125 125 126 127 128 129 130 132
12 11 10 10 9 10 11 12 14 16 18 20 22 25 27 29 31 34 36 38 39 41 43 44 46 48 51 53 56 60 64 68 72 75 79 83 86 90 93 96 99 101 104 107 109 111 112 113 114 115 116 117 118 119 119 120 121 121 122 122 123 123 123 124 125 125 126 127 127 127 128 128 128 129
16 15 14 13 12 12 11 12 12 13 14 15 17 18 20 22 24 27 29 31 33 35 37 39 41 42 44 46 48 50 53 56 59 63 67 70 74 78 82 85 89 92 95 98 100 103 105 107 109 110 111 112 113 114 115 115 116 116 117 117 118 119 119 120 121 122 123 124 124 124 124 124 124 124
21 19 18 17 16 15 15 15 14 14 14 15 15 16 17 18 20 21 23 24 26 28 30 31 33 35 37 39 40 42 45 47 49 52 55 58 61 65 68 71 75 78 81 84 87 89 91 94 96 97 99 100 102 103 104 105 107 108 109 110 111 112 113 114 115 116 118 119 119 120 120 121 121 120
25 24 22 21 21 20 19 19 19 18 18 18 18 19 19 20 20 21 22 23 24 25 26 27 29 30 31 33 35 36 38 40 42 44 46 48 51 53 56 58 61 63 66 69 71 74 76 79 81 83 85 87 89 91 92 94 96 98 99 101 102 103 105 106 107 109 110 112 113 114 114 115 115 115
Wind_Direction
226 222 219 217 217 217 217 220 222 221 220 220 221 224 228 228 225 222 225 231 233 234 239 242 243 239 232 226 226 226 229 230 227 230 243 251 256 260 260 260 258 256 255 256 257 260 262 263 263 264 264 264 264 264 263 262 260 260 261 263 265 268 270 271 270 272 276 280 282 284 287 291 295 299
225 224 221 219 219 219 218 219 221 219 218 220 220 222 227 229 227 224 227 232 235 235 235 234 234 233 228 224 227 228 229 231 228 228 236 245 250 254 256 258 258 258 257 256 257 258 259 261 261 262 262 261 262 263 264 263 262 262 263 264 264 264 265 264 266 269 272 274 277 281 286 290 293 296
225 224 222 220 219 220 220 220 220 218 217 220 221 221 224 227 228 228 229 233 237 238 234 228 227 226 224 224 228 227 225 226 226 226 230 238 245 248 251 254 256 258 259 259 260 260 260 260 260 261 261 261 260 261 262 262 262 263 264 265 265 265 264 264 266 269 271 274 278 282 287 289 291 294
224 223 222 221 220 221 221 222 221 218 217 219 222 222 223 225 227 229 231 233 238 240 234 227 226 226 226 230 232 226 223 223 224 227 232 238 245 248 248 250 253 256 258 259 260 260 260 260 259 259 258 258 259 260 260 262 262 263 264 265 266 266 267 269 271 273 276 278 281 283 286 289 291 294
224 223 222 222 222 221 222 222 223 221 219 221 223 223 224 224 226 229 232 235 238 239 236 229 229 230 231 234 232 224 224 225 224 229 235 240 247 251 250 249 250 252 254 254 254 254 256 258 258 258 257 257 259 260 261 262 264 266 267 267 267 268 270 273 275 277 279 281 283 285 288 290 292 294
224 222 222 222 223 222 222 223 224 224 224 224 224 224 224 225 226 229 234 237 236 236 235 230 227 229 230 233 232 228 228 228 225 228 235 241 247 250 252 252 250 250 251 250 249 249 251 255 258 257 257 259 260 261 261 262 264 266 268 270 271 271 272 274 276 278 281 282 284 285 287 290 291 292
224 223 222 222 222 223 223 223 224 225 226 227 227 226 226 226 227 229 233 236 236 234 233 228 224 225 227 229 231 233 233 230 228 230 235 240 244 246 249 251 252 253 253 252 252 250 251 255 257 258 258 258 259 260 260 261 262 264 267 270 272 273 274 275 276 277 279 280 282 284 285 288 289 290
224 223 222 222 222 223 223 224 224 225 227 228 228 228 228 227 227 229 232 234 235 233 230 227 224 223 225 224 226 235 238 234 232 234 235 237 240 243 247 250 254 258 256 253 254 255 258 260 259 260 260 258 257 257 256 258 259 261 264 267 269 272 274 275 276 277 278 279 280 282 284 285 287 288
224 223 222 222 222 222 223 224 225 226 227 229 229 229 229 229 229 231 232 232 233 232 229 226 225 225 226 225 224 232 240 238 235 236 236 235 237 242 245 248 252 256 255 254 255 256 259 264 263 261 261 259 255 253 252 255 257 261 266 269 272 274 275 276 276 275 276 278 280 282 284 285 286 287
226 223 222 222 222 222 223 224 225 226 227 228 228 229 230 231 231 232 233 232 231 231 230 227 226 227 228 228 227 229 239 243 239 236 235 236 236 240 243 244 247 251 253 255 258 257 256 259 262 261 260 258 255 252 253 256 260 267 273 275 275 275 274 273 272 273 276 279 281 282 283 283 285 285
227 225 222 221 221 222 222 224 224 225 227 228 228 228 229 231 232 232 233 232 230 230 230 228 227 226 227 229 230 231 236 243 243 238 235 236 236 238 240 241 242 246 249 254 258 257 255 255 258 262 263 262 260 260 262 263 263 268 274 274 273 273 274 274 273 275 279 281 281 281 282 283 284 282
226 225 223 221 221 221 222 224 224 224 226 228 229 229 229 230 230 231 232 232 232 232 231 230 228 227 226 228 230 231 232 236 241 240 236 235 235 236 238 239 241 242 245 249 254 254 252 251 254 258 262 266 267 267 267 264 261 263 268 268 268 269 271 272 273 277 282 283 281 280 280 281 281 280
225 224 224 222 222 222 222 223 224 224 224 226 229 230 230 229 228 229 230 231 233 233 233 231 229 227 226 226 226 227 229 231 237 241 239 235 234 235 236 238 241 242 243 246 250 251 250 251 254 255 257 263 267 266 264 262 259 261 263 261 262 263 264 265 267 268 270 272 273 273 275 278 280 281
223 222 222 222 223 223 222 222 224 225 224 225 227 229 230 230 229 228 229 230 232 233 233 231 229 228 227 224 222 224 226 228 232 237 239 237 235 234 235 237 240 242 243 243 245 247 249 251 255 255 255 259 263 263 264 264 261 261 261 257 256 258 260 263 262 258 259 263 266 268 270 274 278 279
222 221 220 220 222 223 223 222 223 225 224 224 226 228 230 230 229 228 228 230 231 232 233 232 230 229 228 225 223 223 225 227 231 234 236 237 236 234 234 236 238 240 241 242 243 244 246 249 252 254 254 257 260 262 265 266 263 261 260 257 255 256 259 261 260 257 259 263 266 266 267 268 270 272
222 220 219 219 221 223 223 221 222 225 225 224 224 227 229 229 229 229 230 231 231 232 232 232 231 230 228 227 226 226 226 228 230 233 235 236 236 235 234 235 237 238 239 240 241 243 245 248 251 253 254 256 258 261 263 263 261 259 257 257 258 258 258 259 258 259 261 264 266 267 268 267 268 270
221 220 219 219 220 221 221 220 221 223 224 223 222 224 227 228 229 230 230 232 233 232 232 232 231 230 229 228 228 228 228 228 227 230 234 236 236 237 235 235 236 238 240 241 241 243 245 247 250 252 253 255 256 257 258 258 258 256 256 258 259 258 257 257 258 260 262 263 265 267 267 267 268 270
221 221 220 219 220 221 220 220 220 222 223 222 221 222 225 226 228 229 230 231 232 232 231 231 230 230 229 229 229 228 228 227 226 228 233 234 235 236 237 237 237 238 241 243 244 246 246 247 249 251 253 254 255 255 255 256 256 256 259 261 261 259 257 256 257 260 261 263 265 266 266 266 268 271
221 221 220 220 221 221 221 220 220 221 222 223 222 222 224 225 225 227 229 230 230 231 232 231 229 229 229 229 230 230 229 228 229 231 234 235 235 237 239 241 241 241 241 243 246 247 248 248 249 251 253 254 255 255 255 256 257 258 261 264 264 263 262 261 260 261 262 264 265 266 266 267 268 270
220 221 221 221 221 223 222 221 220 220 221 223 222 222 223 223 224 225 227 228 229 230 231 231 230 228 228 228 229 230 230 229 230 232 235 238 239 240 242 244 244 244 243 243 245 247 248 248 249 250 252 253 254 255 256 257 259 261 263 265 266 266 265 265 264 263 263 264 265 265 266 266 268 270
219 220 221 222 222 224 224 222 220 219 220 222 223 223 223 223 224 225 226 227 229 229 230 231 230 228 228 228 228 229 229 229 230 233 236 239 242 243 245 245 244 244 244 243 244 246 248 248 248 248 249 251 253 254 256 257 260 262 263 264 264 263 262 262 263 264 265 266 266 266 267 267 268 270
219 220 221 222 223 225 225 223 221 219 220 221 223 223 223 224 224 225 225 226 227 228 229 230 229 227 227 229 229 229 230 231 232 234 236 239 242 243 244 244 243 243 243 242 243 245 247 248 248 248 248 250 252 254 255 257 259 261 262 263 263 261 260 260 261 263 265 266 266 267 268 269 269 270
219 220 221 223 224 226 226 224 222 220 220 220 221 222 224 225 225 226 226 226 227 228 227 228 229 228 226 227 228 228 229 231 233 234 236 238 241 242 243 242 241 241 240 240 241 243 246 247 248 248 249 250 252 254 256 257 259 260 262 262 263 262 262 261 261 262 263 265 266 267 268 269 269 270
219 220 221 223 225 227 228 226 224 222 221 221 221 222 223 224 225 226 227 227 227 228 227 227 229 229 226 226 228 228 229 230 232 234 236 238 240 241 242 241 240 240 240 240 240 242 244 245 247 248 249 251 252 254 255 257 258 260 261 262 263 264 265 265 264 264 264 265 267 268 268 268 269 271
220 221 222 224 226 228 229 228 226 224 222 222 222 222 223 224 224 226 227 227 227 227 227 227 228 229 228 226 227 230 231 232 233 234 236 237 239 240 241 241 240 240 241 241 241 242 243 244 246 248 249 251 252 254 256 257 258 260 261 263 264 265 266 267 266 265 265 265 266 268 269 269 270 271
221 221 223 224 227 229 231 230 228 225 224 223 222 222 223 223 224 225 226 227 227 227 227 227 227 228 229 228 227 230 232 234 235 236 236 237 238 239 240 239 239 240 242 243 243 243 243 244 246 247 249 251 252 254 256 257 259 260 261 262 264 265 265 266 266 266 266 266 268 269 270 270 271 272
221 222 223 225 227 229 231 231 230 227 226 224 223 223 224 224 225 225 225 226 227 227 227 227 227 227 228 229 228 229 232 234 235 236 238 238 238 239 240 239 239 239 241 243 243 243 244 245 246 247 249 250 251 253 255 256 257 258 259 260 261 263 264 264 265 266 267 268 269 270 271 271 272 274
222 223 224 225 227 229 231 232 231 229 228 226 225 225 225 225 225 225 225 226 226 227 227 228 228 228 228 229 229 229 231 233 234 235 237 239 239 239 239 239 239 239 239 241 243 243 244 245 246 247 248 249 251 252 253 255 256 257 258 260 261 262 263 264 265 266 267 268 269 270 271 272 274 275
225 224 225 226 227 229 231 232 232 231 229 228 227 226 226 225 225 225 226 226 226 226 227 229 230 230 229 229 229 230 230 232 233 234 235 237 238 239 239 239 240 240 240 241 242 244 245 246 248 249 249 250 251 252 253 254 256 257 258 259 260 261 263 264 265 266 267 268 269 271 272 273 274 275
227 226 226 227 228 230 231 233 233 232 231 229 228 228 227 227 226 226 226 226 225 226 228 229 230 231 230 229 230 230 231 232 233 234 234 235 237 238 239 239 240 241 241 242 243 245 246 248 249 250 251 251 252 253 254 255 256 257 258 259 259 261 262 263 265 266 267 269 270 271 272 273 274 275
230 229 228 228 229 230 232 233 233 233 232 230 229 229 229 228 228 227 226 225 225 226 228 229 231 232 233 231 230 231 232 233 234 234 235 236 238 239 240 240 241 242 243 244 245 246 248 249 250 250 251 252 253 254 254 255 256 257 258 258 259 260 261 263 264 266 267 268 270 271 272 273 274 275
231 231 231 231 231 231 232 233 234 234 234 232 231 230 230 230 229 229 227 226 226 227 228 230 232 233 234 234 233 232 233 234 235 236 237 238 239 241 242 242 242 243 244 246 247 248 249 250 250 251 251 252 253 254 255 255 256 257 258 259 260 261 262 263 264 265 266 268 269 270 271 272 273 274
230 231 232 232 233 233 233 234 235 235 235 234 233 232 231 230 230 230 229 228 227 228 229 231 232 234 235 236 235 234 234 235 237 238 239 240 241 243 244 245 245 245 246 247 248 249 250 250 251 251 252 252 253 254 255 256 257 258 259 260 260 262 263 264 265 266 267 268 269 270 271 272 273 273
231 231 232 233 234 234 235 235 236 236 236 236 235 233 233 232 232 232 232 231 230 230 230 231 233 234 235 237 237 237 236 237 238 240 241 242 243 244 245 246 247 248 248 249 249 250 251 251 252 252 253 253 254 255 256 257 258 259 260 261 261 262 263 264 266 267 268 269 270 271 271 272 272 273
233 232 232 233 233 235 236 236 237 237 237 237 237 236 234 234 233 233 233 233 233 233 233 233 234 235 236 237 238 238 238 238 239 240 242 243 244 245 246 246 247 248 249 250 250 250 251 252 253 254 254 254 255 256 256 257 259 260 260 261 262 263 264 265 266 267 268 269 270 271 272 272 273 273
236 235 234 234 234 234 235 236 237 238 238 238 238 238 237 236 236 235 235 235 235 235 235 235 235 236 236 237 238 239 239 239 240 240 242 243 244 245 246 247 248 249 249 250 251 252 253 254 254 255 256 256 257 258 258 259 260 261 262 263 263 264 264 265 266 267 268 269 270 271 272 272 273 274
240 239 237 237 236 235 235 236 237 238 238 239 239 239 239 238 238 237 237 237 237 237 237 237 237 237 237 238 239 240 240 241 241 241 241 242 243 244 245 247 248 249 250 251 252 253 254 255 256 257 258 259 260 261 261 261 261 261 262 263 264 265 265 266 267 267 268 269 270 271 272 272 273 274
248 244 241 240 239 238 238 238 238 238 238 239 240 240 240 240 240 239 239 238 238 238 238 238 238 239 239 239 240 240 241 242 242 242 242 242 242 243 244 245 246 248 250 251 252 253 254 256 257 258 259 260 261 262 263 263 264 264 264 265 266 267 267 268 269 269 270 270 271 272 273 274 275 275
261 254 248 245 243 242 241 240 240 239 239 239 239 240 241 241 241 241 241 241 241 240 240 240 241 241 241 241 241 242 242 243 243 243 244 244 244 244 244 245 246 247 248 249 251 252 253 254 255 256 257 259 259 260 261 262 264 265 266 267 267 268 269 270 271 272 272 273 273 274 274 275 275 276
273 267 260 254 249 246 244 243 242 242 241 241 240 240 241 241 242 242 242 242 242 242 242 242 242 243 243 243 243 243 244 244 244 245 245 245 245 246 246 246 247 247 248 249 250 251 252 253 254 255 256 257 258 259 260 261 262 264 265 266 267 268 269 270 270 271 272 273 273 274 274 275 275 275
268 269 268 265 260 254 250 247 246 244 244 243 243 243 243 243 243 243 244 244 244 244 244 244 244 245 245 245 245 245 246 246 246 246 247 247 247 248 248 248 248 249 249 250 251 252 253 254 255 256 257 258 259 260 260 262 263 264 265 266 267 268 269 269 270 270 271 271 272 273 273 274 275 275
258 260 262 263 262 261 258 254 251 250 248 247 247 246 246 246 246 246 246 246 246 247 247 247 247 248 248 248 248 248 249 249 249 249 249 249 249 250 250 250 251 251 251 252 253 254 255 256 256 257 258 259 260 261 262 263 264 264 265 266 267 268 268 269 270 270 271 271 272 272 273 274 275 275
255 254 255 256 257 258 258 258 256 255 253 251 251 250 250 249 249 249 249 249 250 250 250 251 251 251 251 251 252 251 251 251 251 251 251 251 251 251 252 252 252 253 253 254 255 256 256 257 258 259 260 260 261 262 263 264 264 265 266 266 267 267 268 269 269 270 271 271 272 272 273 273 274 274
255 254 254 255 256 257 257 258 257 256 255 254 253 252 251 251 251 251 251 251 251 251 251 252 252 252 253 253 253 253 253 253 253 253 253 253 253 253 253 254 254 255 255 256 256 257 258 258 259 260 261 261 262 263 263 264 264 265 266 266 267 267 268 268 269 269 270 271 271 272 272 272 273 273
254 255 255 255 256 256 257 258 258 259 259 259 259 258 257 256 256 256 255 255 255 254 254 254 254 255 255 255 255 255 256 256 257 257 257 257 257 257 256 256 256 257 257 257 258 258 259 259 260 260 261 261 262 263 263 264 265 265 266 266 267 268 268 269 269 270 270 271 271 271 272 273 273 274
Height
10675 10679 10681 10684 10687 10690 10692 10694 10697 10701 10704 10706 10709 10711 10714 10716 10718 10720 10722 10722 10724 10727 10729 10732 10735 10736 10737 10738 10739 10740 10740 10739 10739 10739 10739 10739 10741 10742 10743 10744 10745 10745 10746 10747 10748 10748 10749 10750 10750 10751 10752 10752 10753 10754 10754 10754 10755 10755 10755 10756 10757 10757 10757 10758 10758 10758 10759 10759 10758 10758 10758 10758 10758 10757
10668 10672 10675 10678 10681 10684 10687 10689 10692 10696 10700 10702 10704 10707 10710 10713 10715 10716 10717 10719 10720 10722 10725 10728 10731 10732 10732 10734 10736 10737 10738 10738 10738 10737 10736 10736 10737 10738 10739 10740 10741 10742 10743 10744 10745 10745 10746 10747 10748 10748 10749 10750 10751 10751 10752 10752 10753 10753 10753 10753 10754 10754 10755 10755 10755 10756 10756 10756 10756 10756 10756 10756 10756 10755
10661 10665 10669 10672 10675 10678 10681 10684 10687 10691 10694 10696 10699 10702 10705 10707 10710 10712 10713 10715 10716 10719 10721 10725 10726 10727 10728 10731 10733 10734 10735 10735 10735 10735 10733 10732 10732 10734 10735 10736 10738 10739 10740 10741 10742 10743 10744 10744 10745 10745 10746 10747 10748 10748 10749 10750 10750 10751 10751 10751 10752 10752 10752 10753 10753 10753 10754 10754 10754 10754 10754 10753 10753 10753
10654 10658 10662 10665 10668 10672 10675 10678 10681 10685 10688 10691 10693 10696 10698 10701 10705 10707 10708 10710 10712 10715 10718 10720 10722 10723 10725 10727 10729 10730 10731 10731 10732 10732 10731 10729 10729 10730 10731 10733 10734 10736 10737 10739 10740 10740 10741 10742 10742 10743 10743 10744 10745 10746 10746 10747 10748 10748 10749 10749 10749 10750 10750 10750 10751 10751 10752 10752 10752 10751 10751 10751 10751 10751
10645 10650 10655 10659 10662 10665 10668 10672 10675 10679 10682 10684 10686 10688 10692 10695 10699 10702 10704 10705 10708 10712 10714 10716 10718 10720 10722 10724 10726 10727 10727 10727 10728 10728 10728 10728 10728 10728 10729 10731 10732 10733 10735 10736 10737 10738 10738 10739 10740 10740 10741 10741 10742 10743 10744 10744 10745 10746 10747 10747 10747 10748 10748 10748 10749 10749 10749 10749 10749 10749 10749 10749 10749 10748
10636 10642 10646 10650 10653 10657 10661 10665 10669 10673 10675 10676 10678 10683 10687 10691 10695 10698 10700 10702 10704 10708 10710 10711 10714 10717 10719 10721 10722 10723 10723 10724 10724 10724 10724 10726 10727 10727 10728 10729 10729 10731 10732 10732 10733 10734 10735 10736 10737 10738 10738 10739 10739 10740 10741 10742 10743 10743 10744 10745 10745 10746 10746 10747 10747 10747 10747 10747 10747 10746 10746 10746 10746 10746
10626 10632 10636 10640 10644 10648 10653 10658 10662 10666 10667 10669 10673 10678 10682 10685 10688 10691 10694 10696 10698 10701 10704 10706 10709 10711 10714 10717 10718 10719 10719 10720 10720 10720 10721 10723 10724 10725 10726 10726 10727 10729 10730 10730 10731 10731 10732 10733 10734 10735 10736 10736 10737 10737 10738 10739 10740 10741 10742 10743 10743 10744 10744 10744 10744 10744 10744 10744 10744 10743 10743 10743 10743 10743
10616 10621 10626 10631 10637 10642 10646 10650 10654 10658 10660 10663 10667 10672 10675 10677 10680 10683 10686 10688 10691 10695 10699 10701 10703 10706 10708 10711 10713 10714 10714 10716 10717 10717 10717 10719 10720 10722 10722 10723 10725 10726 10727 10728 10729 10729 10730 10731 10732 10733 10733 10734 10734 10735 10735 10737 10737 10738 10739 10740 10740 10741 10741 10741 10741 10741 10741 10741 10740 10740 10740 10740 10739 10739
10605 10611 10617 10622 10629 10635 10639 10642 10645 10647 10651 10655 10661 10665 10668 10670 10673 10676 10678 10681 10685 10689 10693 10695 10698 10701 10703 10705 10707 10708 10709 10710 10712 10712 10713 10715 10716 10717 10718 10720 10722 10723 10724 10725 10726 10727 10728 10729 10730 10730 10730 10731 10731 10732 10733 10734 10735 10735 10736 10736 10737 10737 10737 10737 10737 10737 10737 10737 10737 10736 10736 10736 10736 10736
10595 10601 10607 10613 10620 10626 10629 10631 10633 10637 10642 10647 10652 10656 10660 10664 10666 10668 10670 10674 10678 10683 10686 10690 10693 10696 10698 10699 10701 10703 10705 10706 10707 10707 10708 10710 10711 10712 10715 10716 10718 10720 10720 10721 10722 10724 10726 10727 10727 10727 10727 10727 10727 10728 10730 10731 10732 10733 10733 10734 10733 10733 10733 10732 10732 10732 10733 10733 10733 10733 10732 10732 10732 10732
10585 10591 10598 10604 10610 10615 10617 10619 10623 10628 10634 10638 10642 10646 10650 10655 10658 10661 10664 10668 10673 10677 10680 10684 10687 10690 10693 10694 10696 10699 10700 10701 10701 10702 10703 10705 10706 10708 10710 10712 10714 10715 10716 10717 10719 10721 10723 10723 10723 10723 10723 10724 10724 10726 10728 10728 10729 10730 10731 10731 10730 10729 10728 10727 10727 10728 10729 10730 10729 10728 10728 10728 10728 10727
10575 10582 10589 10596 10601 10605 10607 10610 10615 10619 10624 10629 10633 10637 10641 10645 10649 10653 10658 10662 10666 10671 10674 10677 10681 10684 10687 10689 10691 10693 10695 10696 10696 10696 10698 10699 10700 10703 10705 10707 10709 10710 10712 10713 10715 10717 10719 10719 10719 10719 10719 10720 10721 10723 10724 10723 10724 10725 10726 10727 10726 10726 10724 10722 10723 10726 10726 10726 10726 10725 10723 10724 10724 10722
10566 10573 10581 10587 10591 10594 10596 10601 10605 10610 10614 10618 10622 10627 10631 10636 10641 10645 10650 10654 10659 10664 10667 10671 10675 10678 10680 10683 10685 10687 10689 10690 10691 10691 10691 10693 10695 10698 10700 10701 10703 10705 10707 10709 10710 10712 10713 10714 10715 10715 10716 10717 10716 10717 10718 10718 10720 10721 10721 10722 10722 10722 10719 10717 10720 10724 10723 10722 10722 10721 10719 10719 10719 10718
10558 10564 10572 10577 10579 10581 10585 10591 10595 10599 10604 10608 10612 10617 10622 10627 10634 10639 10643 10647 10652 10656 10661 10665 10669 10672 10674 10676 10678 10681 10683 10684 10685 10685 10685 10687 10690 10693 10695 10696 10698 10700 10703 10703 10705 10707 10708 10709 10710 10711 10712 10712 10711 10712 10713 10713 10715 10717 10716 10716 10717 10716 10714 10714 10716 10718 10718 10717 10717 10717 10716 10715 10715 10714
10549 10555 10561 10566 10569 10571 10574 10580 10584 10588 10594 10599 10603 10607 10612 10618 10626 10632 10637 10640 10645 10650 10654 10658 10662 10665 10667 10670 10672 10674 10677 10678 10679 10679 10679 10681 10684 10687 10690 10691 10693 10695 10697 10698 10701 10702 10703 10704 10704 10705 10707 10707 10707 10708 10708 10708 10709 10711 10711 10711 10711 10710 10709 10710 10711 10712 10712 10712 10711 10711 10711 10711 10711 10711
10540 10546 10552 10557 10559 10562 10565 10570 10574 10578 10584 10590 10595 10600 10603 10609 10616 10624 10630 10634 10637 10642 10647 10651 10655 10658 10661 10663 10665 10668 10670 10672 10673 10673 10672 10674 10678 10681 10685 10686 10688 10689 10691 10693 10696 10697 10697 10699 10698 10698 10701 10702 10702 10702 10703 10703 10704 10704 10705 10706 10706 10705 10705 10705 10705 10706 10706 10706 10706 10706 10705 10705 10705 10706
10532 10537 10543 10547 10551 10554 10557 10561 10564 10568 10573 10579 10585 10590 10594 10599 10607 10615 10621 10626 10629 10634 10639 10643 10647 10651 10654 10656 10658 10661 10664 10666 10667 10667 10667 10669 10672 10675 10678 10681 10682 10683 10685 10688 10690 10691 10692 10693 10693 10693 10695 10696 10696 10696 10696 10697 10697 10698 10699 10700 10700 10700 10700 10700 10699 10699 10699 10699 10700 10700 10700 10699 10699 10699
10524 10529 10533 10538 10542 10546 10549 10552 10555 10560 10564 10568 10574 10579 10584 10590 10598 10604 10611 10617 10621 10625 10631 10636 10640 10643 10646 10649 10651 10653 10656 10659 10661 10662 10662 10663 10665 10668 10671 10674 10677 10678 10679 10682 10683 10684 10686 10687 10687 10688 10689 10690 10690 10690 10690 10690 10691 10693 10693 10694 10694 10694 10694 10694 10693 10693 10693 10693 10693 10693 10693 10693 10693 10693
10516 10520 10525 10531 10535 10538 10541 10545 10548 10552 10556 10560 10565 10570 10574 10580 10587 10594 10601 10607 10613 10617 10622 10628 10632 10636 10639 10642 10645 10647 10650 10652 10655 10656 10655 10656 10659 10662 10665 10668 10671 10672 10674 10676 10677 10678 10679 10681 10682 10683 10684 10684 10684 10684 10684 10684 10686 10687 10687 10687 10687 10688 10688 10688 10687 10687 10687 10687 10687 10687 10687 10687 10687 10687
10509 10514 10519 10524 10527 10530 10533 10537 10541 10545 10549 10553 10557 10562 10566 10571 10578 10584 10591 10598 10604 10609 10614 10619 10624 10628 10632 10635 10638 10640 10643 10645 10647 10649 10649 10651 10653 10656 10658 10661 10663 10665 10667 10669 10670 10671 10672 10674 10676 10676 10677 10677 10678 10677 10678 10678 10678 10679 10680 10680 10681 10681 10681 10681 10681 10680 10680 10681 10681 10681 10681 10681 10680 10680
10504 10508 10512 10516 10520 10522 10525 10530 10534 10538 10542 10545 10549 10554 10558 10563 10569 10575 10582 10589 10595 10600 10605 10610 10616 10621 10624 10628 10631 10633 10635 10637 10640 10642 10643 10645 10647 10649 10651 10653 10655 10657 10659 10662 10663 10664 10665 10666 10668 10669 10669 10670 10671 10671 10671 10671 10671 10671 10672 10673 10674 10674 10674 10673 10673 10673 10673 10674 10674 10674 10674 10674 10673 10673
10499 10502 10505 10509 10512 10514 10518 10522 10526 10530 10534 10537 10541 10546 10550 10556 10561 10567 10573 10580 10586 10592 10597 10602 10608 10613 10617 10620 10622 10625 10628 10630 10632 10634 10636 10638 10640 10641 10643 10646 10647 10649 10651 10653 10655 10657 10658 10659 10659 10660 10661 10663 10663 10664 10663 10663 10663 10664 10664 10665 10665 10666 10666 10666 10665 10665 10665 10666 10666 10666 10666 10666 10665 10665
10493 10496 10499 10502 10505 10507 10511 10515 10518 10522 10526 10529 10534 10539 10543 10549 10554 10559 10564 10571 10577 10584 10590 10594 10600 10605 10610 10612 10614 10617 10620 10622 10624 10626 10628 10630 10633 10634 10635 10637 10639 10641 10642 10644 10647 10648 10650 10651 10651 10652 10653 10655 10655 10655 10655 10655 10655 10656 10656 10656 10656 10656 10657 10658 10658 10657 10658 10658 10658 10658 10658 10658 10657 10657
10487 10491 10494 10497 10499 10501 10504 10508 10511 10514 10518 10522 10526 10531 10536 10541 10546 10550 10556 10563 10569 10575 10581 10586 10591 10596 10601 10605 10607 10609 10611 10612 10614 10617 10620 10622 10624 10626 10628 10629 10631 10632 10634 10636 10638 10640 10641 10642 10643 10643 10644 10646 10646 10646 10646 10647 10647 10647 10647 10647 10647 10647 10648 10649 10649 10649 10650 10650 10650 10650 10650 10649 10649 10648
10483 10486 10490 10492 10494 10496 10498 10501 10504 10507 10510 10514 10519 10524 10528 10532 10537 10542 10548 10554 10560 10566 10572 10577 10582 10586 10592 10596 10598 10599 10600 10602 10605 10609 10611 10614 10616 10618 10620 10622 10623 10625 10626 10627 10629 10631 10632 10633 10634 10634 10634 10636 10637 10637 10637 10638 10639 10639 10639 10639 10639 10639 10639 10640 10640 10640 10641 10641 10641 10641 10641 10641 10640 10639
10478 10482 10485 10487 10489 10491 10493 10495 10498 10501 10504 10508 10512 10516 10520 10524 10529 10535 10540 10546 10551 10557 10562 10568 10572 10577 10581 10585 10587 10588 10590 10592 10596 10599 10602 10605 10607 10609 10611 10613 10615 10617 10618 10619 10621 10622 10623 10623 10624 10625 10626 10627 10628 10629 10629 10630 10631 10631 10631 10631 10631 10630 10630 10630 10630 10631 10631 10631 10631 10631 10631 10631 10631 10630
10473 10477 10479 10482 10484 10486 10488 10490 10492 10495 10498 10501 10505 10509 10512 10517 10522 10527 10532 10537 10543 10548 10553 10558 10563 10567 10571 10574 10577 10579 10581 10584 10587 10589 10593 10596 10599 10601 10603 10605 10607 10608 10610 10611 10612 10613 10614 10615 10615 10616 10617 10619 10619 10620 10620 10621 10621 10621 10622 10622 10622 10621 10621 10621 10621 10621 10621 10621 10621 10620 10620 10620 10620 10619
10469 10471 10474 10477 10479 10481 10483 10484 10487 10489 10492 10495 10499 10502 10506 10510 10515 10519 10524 10530 10534 10539 10544 10548 10553 10557 10561 10564 10567 10570 10572 10575 10577 10580 10584 10587 10590 10592 10595 10596 10598 10600 10601 10603 10604 10605 10605 10606 10607 10608 10609 10610 10610 10611 10611 10611 10611 10611 10612 10612 10613 10612 10612 10612 10612 10612 10611 10611 10610 10609 10609 10608 10608 10608
10464 10467 10469 10472 10474 10476 10477 10479 10481 10483 10486 10489 10493 10496 10499 10503 10507 10512 10517 10522 10526 10530 10535 10539 10543 10547 10550 10554 10557 10560 10562 10565 10568 10571 10575 10578 10580 10583 10585 10587 10589 10591 10593 10594 10596 10596 10597 10598 10598 10599 10600 10601 10601 10601 10602 10602 10602 10602 10603 10603 10603 10603 10602 10602 10601 10601 10600 10600 10599 10598 10597 10596 10596 10596
10460 10463 10465 10467 10469 10471 10472 10474 10476 10478 10480 10483 10486 10489 10492 10496 10500 10504 10509 10513 10517 10521 10526 10530 10533 10537 10541 10544 10547 10550 10553 10556 10559 10562 10566 10569 10570 10573 10575 10577 10579 10581 10583 10585 10586 10587 10588 10589 10590 10590 10591 10591 10592 10592 10592 10593 10593 10593 10593 10593 10593 10593 10592 10591 10591 10590 10590 10588 10587 10587 10586 10585 10584 10583
10456 10458 10460 10462 10464 10466 10468 10469 10471 10473 10475 10477 10480 10483 10486 10489 10492 10496 10501 10505 10509 10513 10517 10521 10524 10528 10531 10534 10538 10541 10544 10546 10549 10553 10557 10559 10561 10563 10565 10567 10569 10571 10573 10575 10576 10577 10578 10579 10580 10581 10582 10582 10583 10583 10583 10583 10583 10583 10583 10582 10582 10581 10581 10581 10580 10579 10578 10577 10576 10575 10574 10573 10572 10571
10451 10454 10456 10458 10459 10461 10463 10464 10466 10468 10469 10472 10474 10477 10479 10482 10486 10489 10493 10498 10501 10505 10509 10512 10515 10519 10522 10525 10529 10532 10535 10537 10540 10543 10547 10550 10552 10554 10555 10557 10559 10561 10563 10564 10566 10567 10568 10569 10570 10571 10571 10572 10572 10572 10572 10572 10572 10572 10572 10572 10571 10571 10570 10570 10569 10568 10567 10566 10564 10563 10561 10560 10559 10558
10447 10448 10450 10452 10454 10456 10458 10460 10461 10463 10464 10466 10469 10471 10473 10476 10479 10482 10486 10490 10494 10498 10501 10504 10507 10511 10514 10517 10520 10523 10526 10529 10532 10534 10537 10540 10542 10544 10546 10548 10549 10551 10553 10555 10556 10557 10558 10559 10560 10560 10561 10561 10561 10562 10562 10562 10561 10561 10561 10561 10561 10560 10559 10558 10557 10556 10554 10553 10552 10550 10548 10547 10546 10544
10442 10444 10446 10447 10449 10451 10453 10455 10456 10458 10459 10461 10463 10465 10467 10470 10473 10476 10479 10483 10487 10490 10494 10497 10500 10503 10506 10509 10512 10515 10518 10521 10523 10526 10528 10531 10533 10535 10536 10538 10540 10541 10543 10544 10545 10547 10548 10549 10550 10550 10550 10551 10551 10551 10551 10551 10550 10550 10549 10549 10548 10548 10547 10546 10545 10543 10541 10540 10538 10536 10534 10533 10532 10530
10439 10440 10441 10443 10444 10446 10448 10449 10451 10453 10455 10456 10458 10460 10462 10464 10466 10469 10472 10476 10479 10483 10486 10490 10493 10496 10498 10501 10504 10507 10509 10512 10514 10517 10519 10521 10523 10525 10527 10528 10530 10531 10533 10534 10535 10536 10538 10538 10539 10540 10540 10540 10540 10540 10540 10540 10539 10538 10537 10537 10536 10535 10534 10533 10532 10530 10528 10526 10524 10522 10520 10518 10517 10516
10435 10436 10437 10438 10440 10441 10443 10445 10446 10448 10450 10451 10453 10454 10456 10458 10461 10463 10466 10468 10472 10475 10478 10481 10484 10487 10490 10492 10495 10497 10500 10502 10505 10507 10509 10511 10513 10515 10517 10519 10520 10522 10523 10524 10525 10526 10527 10528 10529 10529 10529 10529 10529 10528 10528 10528 10528 10526 10524 10523 10522 10522 10521 10519 10518 10516 10515 10513 10511 10509 10507 10504 10502 10501
10432 10433 10434 10434 10436 10437 10438 10440 10442 10443 10445 10446 10448 10450 10451 10453 10455 10457 10459 10462 10464 10467 10470 10472 10475 10478 10480 10483 10485 10487 10490 10493 10495 10498 10500 10502 10504 10506 10507 10509 10510 10511 10512 10513 10514 10515 10516 10517 10517 10518 10518 10518 10517 10516 10514 10514 10515 10514 10513 10511 10509 10507 10506 10505 10504 10502 10501 10499 10497 10496 10494 10491 10489 10486
10430 10430 10431 10431 10432 10433 10434 10436 10437 10439 10440 10442 10444 10445 10447 10448 10450 10451 10453 10455 10457 10459 10462 10464 10466 10469 10471 10473 10476 10478 10480 10483 10486 10488 10490 10493 10495 10496 10498 10499 10500 10501 10502 10503 10503 10504 10505 10505 10505 10505 10505 10505 10505 10504 10502 10500 10500 10499 10499 10498 10496 10494 10491 10490 10488 10487 10486 10486 10484 10482 10481 10478 10475 10472
10428 10428 10428 10429 10429 10430 10431 10432 10433 10434 10436 10437 10439 10440 10442 10443 10445 10446 10448 10449 10451 10453 10455 10457 10459 10461 10463 10465 10467 10469 10471 10473 10476 10478 10480 10482 10484 10486 10487 10489 10490 10491 10492 10492 10492 10493 10493 10493 10493 10493 10493 10493 10493 10492 10491 10489 10487 10485 10484 10483 10482 10481 10479 10477 10475 10473 10472 10471 10470 10467 10465 10463 10460 10457
10426 10426 10426 10426 10427 10427 10428 10428 10429 10430 10432 10433 10434 10435 10437 10438 10440 10441 10442 10444 10445 10446 10448 10450 10451 10453 10455 10456 10458 10460 10462 10464 10466 10467 10469 10471 10473 10475 10477 10478 10479 10480 10481 10480 10480 10481 10482 10482 10482 10482 10482 10481 10480 10479 10478 10477 10476 10473 10471 10469 10468 10468 10467 10465 10463 10461 10458 10456 10454 10451 10448 10446 10443 10440
10424 10424 10424 10424 10425 10425 10425 10426 10426 10427 10428 10429 10430 10431 10432 10433 10435 10436 10437 10438 10439 10441 10442 10443 10444 10445 10447 10448 10450 10451 10453 10454 10456 10458 10459 10461 10463 10464 10466 10467 10468 10469 10469 10470 10469 10470 10470 10470 10470 10470 10470 10469 10468 10467 10465 10464 10463 10461 10460 10458 10456 10454 10453 10451 10449 10447 10444 10441 10438 10436 10432 10429 10426 10423
10422 10422 10422 10423 10423 10423 10423 10423 10424 10424 10425 10425 10426 10427 10428 10429 10430 10431 10432 10433 10434 10435 10436 10437 10438 10439 10440 10441 10443 10444 10445 10446 10447 10449 10450 10451 10452 10453 10455 10456 10457 10457 10458 10458 10458 10458 10458 10458 10458 10457 10456 10455 10454 10453 10452 10451 10449 10448 10446 10445 10443 10441 10438 10435 10432 10430 10427 10424 10422 10420 10418 10415 10411 10407
10419 10420 10420 10420 10421 10421 10421 10421 10422 10422 10422 10423 10423 10423 10424 10425 10425 10426 10427 10428 10428 10429 10430 10431 10432 10433 10434 10435 10436 10436 10437 10437 10438 10439 10440 10441 10442 10442 10443 10444 10445 10446 10446 10446 10446 10446 10446 10445 10445 10444 10443 10442 10441 10439 10438 10436 10435 10433 10431 10429 10428 10426 10423 10421 10417 10414 10411 10408 10407 10405 10403 10400 10398 10394
10416 10417 10417 10417 10418 10418 10419 10419 10419 10420 10420 10420 10420 10421 10421 10421 10422 10422 10423 10423 10424 10424 10425 10426 10426 10427 10428 10428 10429 10429 10429 10430 10430 10430 10431 10432 10432 10433 10433 10434 10434 10435 10435 10435 10434 10434 10433 10433 10432 10431 10430 10429 10427 10425 10424 10422 10420 10418 10416 10414 10412 10410 10408 10406 10403 10400 10397 10393 10391 10389 10386 10384 10382 10380
10412 10413 10414 10414 10414 10415 10415 10416 10416 10417 10417 10417 10417 10418 10418 10418 10418 10419 10419 10419 10419 10420 10420 10421 10421 10422 10422 10422 10422 10423 10423 10423 10423 10423 10423 10424 10424 10424 10425 10425 10425 10425 10424 10423 10423 10423 10422 10421 10419 10418 10416 10415 10413 10412 10410 10408 10406 10404 10401 10399 10398 10396 10393 10391 10389 10385 10382 10379 10376 10373 10370 10368 10366 10363